Location: M�nchen
(48.1514°N, 11.5604°E)
Time: 13:11:09
(UTC+01:00)

ISS - Visible Passes

Search period start: 09 December 2025 00:00
Search period end: 19 December 2025 00:00
Orbit: 416 x 421 km, 51.6° (Epoch: 08 December)

Date Brightness Start Highest point End Pass type
(mag) Time Alt. Az. Time Alt. Az. Time Alt. Az.
11 Dec -0.6 07:14:04 10° S 07:16:29 18° SE 07:18:55 10° E visible
12 Dec -0.4 06:27:26 10° SSE 06:28:47 12° SE 06:30:09 10° ESE visible
13 Dec -2.3 07:13:57 10° SW 07:17:08 40° SSE 07:20:20 10° ENE visible
14 Dec -1.6 06:26:24 10° SSW 06:29:17 27° SE 06:32:12 10° E visible
15 Dec -1.0 05:39:06 10° S 05:41:28 18° SE 05:43:51 10° E visible
15 Dec -3.7 07:14:29 10° WSW 07:17:51 85° SSE 07:21:15 10° ENE visible
16 Dec -0.5 04:53:49 12° SE 04:53:49 12° SE 04:54:54 10° ESE visible
16 Dec -3.2 06:26:48 12° SW 06:29:53 59° SSE 06:33:13 10° ENE visible
17 Dec -2.6 05:41:24 36° S 05:41:55 39° SSE 05:45:06 10° ENE visible
17 Dec -3.6 07:15:18 10° W 07:18:38 58° NNW 07:21:59 10° ENE visible
18 Dec -0.8 04:55:46 17° E 04:55:46 17° E 04:56:52 10° E visible
18 Dec -3.8 06:28:43 25° W 06:30:32 74° NNW 06:33:54 10° ENE visible
